TimeCST,TemperatureF,Dew PointF,Humidity,Sea Level PressureIn,VisibilityMPH,Wind Direction,Wind SpeedMPH,Gust SpeedMPH,PrecipitationIn,Events,Conditions,WindDirDegrees,DateUTC
12:14 AM,23.0,17.6,80,30.19,10.0,NNE,5.8,-,N/A,,Overcast,30,2013-03-01 06:14:00
12:34 AM,23.0,17.6,80,30.19,10.0,North,5.8,-,N/A,,Overcast,10,2013-03-01 06:34:00
12:54 AM,23.0,17.6,80,30.19,10.0,NNE,4.6,-,N/A,,Overcast,30,2013-03-01 06:54:00
1:14 AM,23.0,17.6,80,30.20,10.0,NNE,5.8,-,N/A,,Overcast,30,2013-03-01 07:14:00
1:34 AM,23.0,17.6,80,30.20,10.0,NNE,6.9,-,N/A,,Overcast,20,2013-03-01 07:34:00
1:54 AM,23.0,17.6,80,30.20,10.0,NNE,6.9,-,N/A,,Overcast,20,2013-03-01 07:54:00
2:14 AM,23.0,17.6,80,30.20,10.0,NNE,5.8,-,N/A,,Overcast,20,2013-03-01 08:14:00
2:34 AM,21.2,17.6,86,30.20,10.0,NE,5.8,-,N/A,,Overcast,40,2013-03-01 08:34:00
3:34 AM,21.2,17.6,86,30.21,10.0,North,6.9,-,N/A,,Overcast,10,2013-03-01 09:34:00
3:53 AM,21.2,17.6,86,30.21,10.0,NNE,6.9,-,N/A,,Overcast,20,2013-03-01 09:53:00
4:14 AM,21.2,15.8,80,30.22,10.0,North,5.8,-,N/A,,Overcast,10,2013-03-01 10:14:00
4:34 AM,21.2,15.8,80,30.22,10.0,North,6.9,-,N/A,,Overcast,360,2013-03-01 10:34:00
5:14 AM,21.2,15.8,80,30.24,10.0,North,6.9,-,N/A,,Overcast,360,2013-03-01 11:14:00
5:34 AM,21.2,15.8,80,30.24,10.0,North,6.9,-,N/A,,Overcast,360,2013-03-01 11:34:00
5:54 AM,21.2,15.8,80,30.24,10.0,North,6.9,-,N/A,,Overcast,360,2013-03-01 11:54:00
6:14 AM,21.2,15.8,80,30.25,10.0,North,5.8,-,N/A,,Overcast,10,2013-03-01 12:14:00
6:34 AM,21.2,15.8,80,30.25,10.0,North,9.2,-,N/A,,Overcast,10,2013-03-01 12:34:00
6:54 AM,21.2,15.8,80,30.26,10.0,NNE,5.8,-,N/A,,Overcast,20,2013-03-01 12:54:00
7:14 AM,21.2,15.8,80,30.27,10.0,North,4.6,-,N/A,Snow,Light Snow,10,2013-03-01 13:14:00
7:34 AM,21.2,15.8,80,30.27,10.0,NNE,5.8,-,N/A,Snow,Light Snow,20,2013-03-01 13:34:00
7:54 AM,21.2,15.8,80,30.28,10.0,NNE,8.1,-,N/A,Snow,Light Snow,20,2013-03-01 13:54:00
8:14 AM,21.2,15.8,80,30.29,10.0,NNE,8.1,-,N/A,Snow,Light Snow,30,2013-03-01 14:14:00
8:34 AM,21.2,14.0,74,30.29,10.0,NNE,9.2,-,N/A,,Overcast,30,2013-03-01 14:34:00
9:14 AM,21.2,15.8,80,30.29,10.0,NE,8.1,-,N/A,,Overcast,50,2013-03-01 15:14:00
9:34 AM,23.0,15.8,74,30.30,10.0,NNE,6.9,-,N/A,Snow,Light Snow,30,2013-03-01 15:34:00
9:54 AM,23.0,15.8,74,30.30,10.0,NNE,6.9,-,N/A,,Overcast,30,2013-03-01 15:54:00
10:14 AM,24.8,15.8,69,30.30,10.0,NNE,10.4,-,N/A,,Overcast,30,2013-03-01 16:14:00
10:34 AM,24.8,15.8,69,30.30,10.0,NNE,11.5,-,N/A,,Overcast,20,2013-03-01 16:34:00
10:54 AM,24.8,15.8,69,30.30,10.0,NNE,11.5,18.4,N/A,,Overcast,20,2013-03-01 16:54:00
11:34 AM,26.6,17.6,69,30.30,10.0,NNE,9.2,-,N/A,,Overcast,20,2013-03-01 17:34:00
12:14 PM,26.6,17.6,69,30.30,10.0,NNE,13.8,-,N/A,,Overcast,30,2013-03-01 18:14:00
12:34 PM,26.6,17.6,69,30.29,10.0,North,13.8,-,N/A,,Overcast,10,2013-03-01 18:34:00
12:54 PM,26.6,17.6,69,30.29,10.0,NNE,11.5,-,N/A,,Overcast,30,2013-03-01 18:54:00
1:14 PM,26.6,17.6,69,30.29,10.0,North,6.9,-,N/A,,Mostly Cloudy,10,2013-03-01 19:14:00
1:34 PM,26.6,17.6,69,30.28,10.0,North,8.1,-,N/A,,Overcast,10,2013-03-01 19:34:00
1:54 PM,28.4,19.4,69,30.28,10.0,North,6.9,-,N/A,,Overcast,10,2013-03-01 19:54:00
2:14 PM,28.4,17.6,64,30.28,10.0,North,6.9,-,N/A,,Overcast,360,2013-03-01 20:14:00
2:34 PM,28.4,17.6,64,30.28,10.0,North,8.1,-,N/A,,Overcast,350,2013-03-01 20:34:00
2:54 PM,28.4,17.6,64,30.28,10.0,NNW,6.9,-,N/A,,Overcast,330,2013-03-01 20:54:00
3:14 PM,26.6,17.6,69,30.28,10.0,NNW,9.2,-,N/A,,Mostly Cloudy,340,2013-03-01 21:14:00
3:34 PM,28.4,17.6,64,30.28,10.0,North,8.1,-,N/A,,Scattered Clouds,350,2013-03-01 21:34:00
4:14 PM,26.6,17.6,69,30.28,10.0,North,9.2,-,N/A,,Scattered Clouds,10,2013-03-01 22:14:00
4:34 PM,26.6,17.6,69,30.29,10.0,North,10.4,-,N/A,,Clear,350,2013-03-01 22:34:00
4:53 PM,26.6,17.6,69,30.29,10.0,NNW,5.8,-,N/A,,Clear,340,2013-03-01 22:53:00
5:14 PM,26.6,17.6,69,30.29,10.0,NNW,5.8,-,N/A,,Clear,340,2013-03-01 23:14:00
5:34 PM,26.6,17.6,69,30.29,10.0,NNW,5.8,-,N/A,,Clear,330,2013-03-01 23:34:00
5:54 PM,24.8,15.8,69,30.30,10.0,NNW,3.5,-,N/A,,Clear,330,2013-03-01 23:54:00
6:14 PM,21.2,15.8,80,30.30,10.0,NW,3.5,-,N/A,,Clear,320,2013-03-02 00:14:00
6:34 PM,23.0,15.8,74,30.31,10.0,Calm,Calm,-,N/A,,Clear,0,2013-03-02 00:34:00
6:54 PM,21.2,15.8,80,30.31,10.0,NW,3.5,-,N/A,,Clear,310,2013-03-02 00:54:00
7:14 PM,21.2,15.8,80,30.31,10.0,WNW,3.5,-,N/A,,Clear,300,2013-03-02 01:14:00
7:34 PM,19.4,15.8,86,30.31,10.0,WNW,4.6,-,N/A,,Clear,300,2013-03-02 01:34:00
8:14 PM,19.4,15.8,86,30.31,10.0,WNW,4.6,-,N/A,,Clear,300,2013-03-02 02:14:00
8:34 PM,17.6,12.2,79,30.31,10.0,NW,5.8,-,N/A,,Clear,310,2013-03-02 02:34:00
8:54 PM,15.8,12.2,86,30.31,10.0,NW,4.6,-,N/A,,Clear,310,2013-03-02 02:54:00
9:13 PM,14.0,10.4,86,30.31,10.0,NW,3.5,-,N/A,,Clear,320,2013-03-02 03:13:00
9:34 PM,12.2,10.4,92,30.32,10.0,Calm,Calm,-,N/A,,Clear,0,2013-03-02 03:34:00
9:54 PM,10.4,8.6,92,30.32,10.0,NW,3.5,-,N/A,,Clear,320,2013-03-02 03:54:00
10:13 PM,10.4,10.4,100,30.32,10.0,NW,4.6,-,N/A,,Clear,320,2013-03-02 04:13:00
10:34 PM,14.0,10.4,86,30.32,10.0,NW,4.6,-,N/A,,Clear,320,2013-03-02 04:34:00
10:54 PM,12.2,10.4,92,30.31,10.0,NW,4.6,-,N/A,,Clear,320,2013-03-02 04:54:00
11:13 PM,10.4,8.6,92,30.31,10.0,NNW,3.5,-,N/A,,Clear,340,2013-03-02 05:13:00
11:34 PM,10.4,10.4,100,30.31,10.0,Calm,Calm,-,N/A,,Clear,0,2013-03-02 05:34:00
11:54 PM,10.4,10.4,100,30.31,10.0,Calm,Calm,-,N/A,,Clear,0,2013-03-02 05:54:00